Main page
METAR-TAF:

METAR-TAF

Airports :

Tampa Executive Airport

Tampa, Florida, United States

latitude: 28-00-50N, longitude: 082-20-43W, elevation: 23 ft

Current weather observation

The report was made 30 minutes ago, at 09:35 UTC
Calm wind
Temperature 72°F
Humidity 94%
Pressure 30.07 in. Hg
Visibility: 10 miles
Overcast at a height of 1200 ft

METAR: KVDF 010935Z AUTO 00000KT 10SM OVC012 22/21 A3007 RMK AO2

Time: 05:05 (10:05 UTC)


TAF: missing

Weather observations and forecasts of more than 4000 airports (METAR and TAF reports).

The available stations are represented by yellow and red dots on the map.

Hover mouse over dot to see the name of the station.

Then click to see weather observations and forecasts.

To change the map : click on the green buttons with a black cross to zoom in, on the green button with a dash to zoom out, or on the green arrows for adjacent maps.


METAR-TAF: